When you browse on this site, cookies collect data to enhance your experience and personalize the content and advertising you see.
Visit our Privacy Policy to learn more. By continuing to use the site, you agree to this use of cookies and data.
  • In Netherlands
  • List of Countries
  • For 7 days
  • Water Temperature
  • Weather Map
  • Weather Widgets
  • user-avatar
    Login

    Hourly Weather Unty

    Today, 21 February, Friday

    Time Temperature Precipitation Wind Pressure Humidity
    00:00 0°C° 0 mm 1 mps 644 mmHg 71%
    01:00 0°C° 0 mm 1 mps 644 mmHg 70%
    02:00 0°C° 0 mm 1 mps 644 mmHg 69%
    03:00 0°C° 0 mm 1 mps 644 mmHg 68%
    04:00 0°C° 0 mm 1 mps 644 mmHg 69%
    05:00 0°C° 0 mm 1 mps 644 mmHg 70%
    06:00 -2°C° 0 mm 2 mps 644 mmHg 71%
    07:00 +1°C° 0 mm 1 mps 645 mmHg 72%
    08:00 +2°C° 0 mm 1 mps 646 mmHg 73%
    09:00 +3°C° 0 mm 1 mps 646 mmHg 74%
    16:00 +4°C° 0 mm 1 mps 646 mmHg 84%
    17:00 +3°C° 0 mm 1 mps 646 mmHg 86%
    18:00 -1°C° 0 mm 2 mps 646 mmHg 87%
    19:00 -1°C° 0 mm 2 mps 646 mmHg 84%
    20:00 -1°C° 0 mm 2 mps 646 mmHg 81%
    21:00 -1°C° 0 mm 2 mps 647 mmHg 77%
    22:00 -1°C° 0 mm 2 mps 647 mmHg 75%
    23:00 -1°C° 0 mm 2 mps 647 mmHg 73%

    Tomorrow, 22 February, Saturday

    Time Temperature Precipitation Wind Pressure Humidity
    00:00 -1°C° 0 mm 2 mps 647 mmHg 71%
    01:00 -1°C° 0 mm 2 mps 647 mmHg 70%
    02:00 -1°C° 0 mm 2 mps 647 mmHg 68%
    03:00 -1°C° 0 mm 2 mps 647 mmHg 67%
    04:00 -1°C° 0 mm 2 mps 647 mmHg 66%
    05:00 -1°C° 0 mm 2 mps 647 mmHg 66%
    06:00 -1°C° 0 mm 2 mps 647 mmHg 65%
    07:00 +1°C° 0 mm 2 mps 648 mmHg 65%
    08:00 +3°C° 0 mm 1 mps 648 mmHg 65%
    09:00 +4°C° 0 mm 1 mps 649 mmHg 65%
    10:00 +5°C° 0 mm 1 mps 649 mmHg 64%
    11:00 +6°C° 0 mm 1 mps 649 mmHg 63%
    12:00 +7°C° 0 mm 1 mps 649 mmHg 62%
    13:00 +7°C° 0 mm 1 mps 649 mmHg 64%
    14:00 +7°C° 0 mm 1 mps 649 mmHg 67%
    15:00 +7°C° 0 mm 1 mps 649 mmHg 69%
    16:00 +5°C° 0 mm 1 mps 648 mmHg 71%
    17:00 +4°C° 0 mm 1 mps 648 mmHg 72%
    18:00 +3°C° 0 mm 1 mps 648 mmHg 74%
    19:00 +3°C° 0 mm 1 mps 648 mmHg 74%
    20:00 +3°C° 0 mm 1 mps 648 mmHg 73%
    21:00 +3°C° 0 mm 1 mps 648 mmHg 73%
    22:00 +2°C° 0 mm 1 mps 648 mmHg 73%
    23:00 +1°C° 0 mm 2 mps 648 mmHg 73%

    Day after tomorrow, 23 February, Sunday

    Time Temperature Precipitation Wind Pressure Humidity
    00:00 +1°C° 0 mm 2 mps 647 mmHg 73%
    01:00 +1°C° 0 mm 2 mps 647 mmHg 71%
    02:00 +1°C° 0 mm 2 mps 647 mmHg 69%
    03:00 -1°C° 0 mm 2 mps 647 mmHg 67%
    04:00 -1°C° 0 mm 2 mps 647 mmHg 65%
    05:00 -1°C° 0 mm 2 mps 647 mmHg 63%
    06:00 -1°C° 0 mm 2 mps 647 mmHg 61%
    07:00 +2°C° 0 mm 1 mps 647 mmHg 60%
    08:00 +3°C° 0 mm 1 mps 648 mmHg 60%
    09:00 +4°C° 0 mm 1 mps 648 mmHg 59%
    10:00 +5°C° 0 mm 1 mps 648 mmHg 58%
    11:00 +6°C° 0 mm 1 mps 648 mmHg 57%
    12:00 +6°C° 0 mm 1 mps 648 mmHg 56%
    13:00 +6°C° 0 mm 1 mps 648 mmHg 59%
    14:00 +5°C° 0 mm 2 mps 647 mmHg 63%
    15:00 +5°C° 0 mm 2 mps 647 mmHg 66%
    16:00 +4°C° 0 mm 2 mps 646 mmHg 73%
    17:00 +3°C° 0 mm 2 mps 646 mmHg 79%
    18:00 +2°C° 0 mm 1 mps 646 mmHg 86%
    19:00 +1°C° 0 mm 2 mps 646 mmHg 85%
    20:00 +1°C° 0 mm 2 mps 646 mmHg 85%
    21:00 +1°C° 0 mm 2 mps 646 mmHg 84%
    22:00 -1°C° 0 mm 2 mps 646 mmHg 84%
    23:00 -1°C° 0 mm 2 mps 646 mmHg 84%

    24 February, Monday

    Time Temperature Precipitation Wind Pressure Humidity
    00:00 -1°C° 0 mm 2 mps 645 mmHg 84%
    01:00 -1°C° 0 mm 2 mps 645 mmHg 82%
    02:00 -1°C° 0 mm 2 mps 645 mmHg 81%
    03:00 -1°C° 0 mm 2 mps 644 mmHg 80%
    04:00 -1°C° 0 mm 2 mps 644 mmHg 80%
    05:00 -2°C° 0 mm 2 mps 644 mmHg 80%
    06:00 -2°C° 0 mm 2 mps 644 mmHg 80%
    07:00 -1°C° 0 mm 2 mps 644 mmHg 77%
    08:00 +1°C° 0 mm 2 mps 644 mmHg 74%
    09:00 +2°C° 0 mm 2 mps 645 mmHg 71%
    10:00 +3°C° 0 mm 2 mps 644 mmHg 67%
    11:00 +4°C° 0 mm 2 mps 644 mmHg 64%
    12:00 +4°C° 0 mm 2 mps 644 mmHg 60%
    13:00 +5°C° 0 mm 2 mps 643 mmHg 61%
    14:00 +4°C° 0 mm 3 mps 642 mmHg 62%
    15:00 +4°C° 0 mm 3 mps 642 mmHg 62%
    16:00 +3°C° 0 mm 3 mps 641 mmHg 66%
    17:00 +2°C° 0 mm 3 mps 640 mmHg 69%
    18:00 0°C° 0 mm 4 mps 639 mmHg 72%
    19:00 0°C° 0 mm 4 mps 639 mmHg 70%
    20:00 0°C° 0 mm 4 mps 639 mmHg 67%
    21:00 0°C° 0 mm 4 mps 638 mmHg 65%
    22:00 0°C° 0 mm 4 mps 638 mmHg 66%
    23:00 0°C° 0 mm 4 mps 637 mmHg 66%

    25 February, Tuesday

    Time Temperature Precipitation Wind Pressure Humidity
    00:00 0°C° 0 mm 4 mps 637 mmHg 67%
    01:00 0°C° 0 mm 4 mps 636 mmHg 67%
    02:00 -1°C° 0 mm 4 mps 636 mmHg 67%
    03:00 -1°C° 0 mm 4 mps 635 mmHg 67%
    04:00 -1°C° 0 mm 4 mps 635 mmHg 67%
    05:00 -1°C° 0 mm 4 mps 635 mmHg 67%
    06:00 -1°C° 0 mm 4 mps 635 mmHg 67%
    07:00 +1°C° 0 mm 3 mps 636 mmHg 65%
    08:00 +2°C° 0 mm 3 mps 636 mmHg 63%
    09:00 +4°C° 0 mm 2 mps 637 mmHg 61%
    10:00 +4°C° 0 mm 2 mps 638 mmHg 59%
    11:00 +5°C° 0 mm 2 mps 638 mmHg 58%
    12:00 +6°C° 0 mm 2 mps 638 mmHg 57%
    13:00 +4°C° 0.3 mm 3 mps 638 mmHg 69%
    14:00 +2°C° 0.3 mm 3 mps 638 mmHg 82%
    15:00 0°C° 0.3 mm 4 mps 638 mmHg 95%
    16:00 0°C° 1 mm 3 mps 638 mmHg 95%
    17:00 -1°C° 1 mm 2 mps 638 mmHg 95%
    18:00 -2°C° 1 mm 2 mps 639 mmHg 95%
    19:00 -2°C° 0.4 mm 2 mps 639 mmHg 95%
    20:00 -3°C° 0.4 mm 2 mps 640 mmHg 94%
    21:00 -3°C° 0.4 mm 2 mps 640 mmHg 93%
    22:00 -4°C° 0.1 mm 2 mps 640 mmHg 92%
    23:00 -4°C° 0.1 mm 2 mps 640 mmHg 90%

    26 February, Wednesday

    Time Temperature Precipitation Wind Pressure Humidity
    00:00 -5°C° 0.1 mm 2 mps 641 mmHg 88%
    01:00 -5°C° 0 mm 2 mps 641 mmHg 86%
    02:00 -7°C° 0 mm 3 mps 641 mmHg 84%
    03:00 -7°C° 0 mm 3 mps 641 mmHg 81%
    04:00 -7°C° 0 mm 2 mps 641 mmHg 80%
    05:00 -7°C° 0 mm 2 mps 642 mmHg 78%
    06:00 -8°C° 0 mm 2 mps 642 mmHg 76%
    07:00 -7°C° 0 mm 2 mps 643 mmHg 71%
    08:00 -6°C° 0 mm 2 mps 644 mmHg 66%
    09:00 -5°C° 0 mm 2 mps 645 mmHg 61%
    10:00 -3°C° 0 mm 2 mps 645 mmHg 55%
    11:00 -2°C° 0 mm 2 mps 645 mmHg 50%
    12:00 -1°C° 0 mm 2 mps 646 mmHg 44%
    13:00 +1°C° 0 mm 2 mps 646 mmHg 43%
    14:00 +1°C° 0 mm 2 mps 646 mmHg 42%
    15:00 +2°C° 0 mm 2 mps 646 mmHg 41%
    16:00 -1°C° 0 mm 2 mps 646 mmHg 45%
    17:00 0°C° 0 mm 1 mps 646 mmHg 50%
    18:00 -1°C° 0 mm 1 mps 646 mmHg 54%
    19:00 -3°C° 0 mm 2 mps 646 mmHg 54%
    20:00 -4°C° 0 mm 2 mps 646 mmHg 54%
    21:00 -4°C° 0 mm 2 mps 647 mmHg 53%
    22:00 -4°C° 0 mm 2 mps 646 mmHg 55%
    23:00 -5°C° 0 mm 3 mps 646 mmHg 56%
    Show more